[[{"header":{"parameterUnit":"m.s-1","parameterCategory":1,"la1":30.2991,"la2":30.254,"lo1":-89.0895,"lo2":-89.0444,"dy":0.0017,"dx":0.0017,"nx":28,"ny":28,"refTime":"2023-05-23T21:00:00:Z","depth":0,"parameterNumber":2,"parameterNumberName":"U-component_of_WINDS"},"data":[0,0,0,0,0,0,0,0,0,0,0,0,0,0,0,0,0,0,0,0,0,0,0,0,0,0,0,0,0,0,0,0,0,0,0,0,0,0,0,0,0,0,0,0,0,0,0,0,0,0,0,0,0,0,0,0,0,0,-0.168,-0.1679,0,-0.1584,-0.1583,-0.1582,-0.1481,-0.148,-0.1479,-0.1477,-0.138,-0.1379,-0.1377,0,0,0,0,0,0,0,0,0,0,0,0,0,-0.1779,-0.1778,-0.168,-0.1679,-0.1678,-0.1584,-0.1583,-0.1581,-0.1482,-0.148,-0.1478,-0.1477,-0.138,-0.1379,-0.1377,0,0,0,0,0,0,0,0,0,0,0,0,0,-0.1715,-0.1777,-0.1681,-0.1617,-0.161,-0.1584,-0.1583,-0.1581,-0.1482,-0.148,-0.1478,-0.1476,-0.1381,-0.1379,-0.1377,-0.1406,0,0,-0.1371,-0.137,0,0,0,0,0,0,0,0,-0.1719,-0.1711,-0.1627,-0.1621,-0.1614,-0.1542,-0.1581,-0.1522,-0.1482,-0.1531,-0.1477,-0.1475,-0.1436,-0.1429,-0.1416,-0.1402,-0.1398,-0.1371,-0.137,-0.1369,-0.1368,0,0,0,0,0,0,0,-0.1723,-0.1715,-0.1642,-0.1626,-0.1618,-0.1593,-0.1582,-0.157,-0.1496,-0.1526,-0.1519,-0.1509,-0.1432,-0.1418,-0.1413,-0.1396,-0.1371,-0.1369,-0.1368,-0.1367,-0.1402,-0.1404,0,0,0,0,0,0,-0.1737,-0.1719,-0.1645,-0.1639,-0.1662,-0.1593,-0.158,-0.1567,-0.1496,-0.1483,-0.1511,-0.1504,-0.1422,-0.1415,-0.1409,-0.1439,-0.1369,-0.1367,-0.1366,-0.14,-0.1403,-0.1405,0,0,0,0,0,0,-0.174,-0.1732,-0.1649,-0.1677,-0.1665,-0.1594,-0.158,-0.1567,-0.1553,-0.1484,-0.147,-0.151,-0.142,-0.1412,-0.1408,-0.1434,-0.1366,-0.1364,-0.1398,-0.1401,-0.1404,-0.15,0,0,0,0,0,0,-0.1743,-0.1733,-0.1744,-0.1678,-0.1664,-0.165,-0.1582,-0.1566,-0.1549,-0.154,-0.148,-0.1468,-0.1418,-0.1411,-0.1406,-0.1431,-0.1363,-0.1395,-0.1399,-0.1403,-0.1495,-0.1507,-0.1517,0,0,0,0,0,-0.1747,-0.1775,-0.1745,-0.1736,-0.1675,-0.1652,-0.1643,-0.1585,-0.1552,-0.1562,-0.1518,-0.147,-0.1432,-0.1412,-0.1405,-0.1429,-0.1393,-0.1398,-0.1402,-0.149,-0.1504,-0.1516,0,0,0,0,0,0,-0.1846,-0.1765,-0.1731,-0.1738,-0.1703,-0.1635,-0.1646,-0.1602,-0.1575,-0.1568,-0.1497,-0.1484,-0.1489,-0.1458,-0.1437,-0.1454,-0.1406,-0.1409,-0.1474,-0.1488,-0.1499,-0.1507,-0.1361,0,0,0,0,0,-0.1868,-0.1856,-0.1786,-0.1799,-0.1783,-0.1718,-0.1705,-0.1663,-0.1623,-0.1608,-0.1563,-0.1527,-0.1507,-0.1495,-0.1473,-0.1489,-0.1475,-0.1502,-0.1513,-0.1523,-0.1528,-0.1535,-0.1546,-0.142,-0.142,-0.142,0,0,-0.1915,-0.187,-0.1866,-0.1818,-0.1785,-0.1774,-0.1706,-0.1697,-0.1688,-0.1607,-0.1601,-0.1567,-0.1521,-0.1528,-0.1528,-0.1503,-0.1559,-0.1529,-0.1537,-0.1536,-0.1541,-0.1553,-0.1563,-0.1424,-0.1423,-0.1422,0,0,-0.1995,-0.1959,-0.1967,-0.1935,-0.1886,-0.1842,-0.1844,-0.1783,-0.1757,-0.1749,-0.1688,-0.1677,-0.1643,-0.1614,-0.1594,-0.1662,-0.1618,-0.1657,-0.1716,-0.1723,-0.1733,-0.1742,-0.1767,-0.1777,-0.1661,-0.1661,-0.1661,0,-0.206,-0.2041,-0.1976,-0.1971,-0.1952,-0.1877,-0.1884,-0.1857,-0.1803,-0.1792,-0.1763,-0.172,-0.1684,-0.1683,-0.17,-0.1686,-0.1687,-0.1664,-0.1737,-0.1745,-0.1752,-0.1775,-0.1785,-0.1667,-0.1666,-0.1665,-0.1665,0,-0.2123,-0.2111,-0.2123,-0.2073,-0.2055,-0.2056,-0.1992,-0.1981,-0.194,-0.19,-0.1893,-0.1847,-0.1815,-0.1811,-0.1771,-0.1804,-0.179,-0.175,-0.17,-0.177,-0.1791,-0.18,-0.1674,-0.1672,-0.1671,-0.1669,0,0,-0.2265,-0.2178,-0.2184,-0.2161,-0.2101,-0.209,-0.2087,-0.2055,-0.2048,-0.2013,-0.201,-0.1983,-0.1946,-0.1924,-0.188,-0.1886,-0.1945,-0.1845,-0.1843,-0.1867,-0.198,-0.2012,-0.2023,-0.1913,-0.1915,-0.1916,-0.1984,0,-0.2336,-0.2327,-0.2269,-0.2277,-0.2265,-0.2193,-0.2191,-0.2154,-0.2116,-0.21,-0.2057,-0.204,-0.1991,-0.1978,-0.1981,-0.1937,-0.1967,-0.1931,-0.1911,-0.1912,-0.1927,-0.2034,-0.2068,-0.2134,-0.1992,-0.1993,-0.1994,0,-0.2418,-0.2388,-0.2396,-0.2336,-0.2328,-0.2328,-0.2293,-0.2279,-0.2235,-0.2207,-0.2182,-0.2132,-0.2126,-0.2078,-0.2069,-0.2046,-0.2035,-0.2012,-0.2013,-0.201,-0.1959,-0.2036,-0.2154,-0.2165,-0.2006,-0.2005,-0.2004,0,-0.2523,-0.2484,-0.2484,-0.2465,-0.2395,-0.2396,-0.2367,-0.2322,-0.2306,-0.2275,-0.2265,-0.2234,-0.2218,-0.2196,-0.2139,-0.2109,-0.2137,-0.2084,-0.2115,-0.2117,-0.2126,-0.2126,-0.2245,-0.2115,-0.2115,-0.2115,-0.2115,0,-0.261,-0.2617,-0.253,-0.253,-0.2536,-0.2468,-0.2477,-0.2441,-0.2401,-0.2393,-0.2328,-0.2322,-0.2246,-0.2232,-0.2187,-0.2188,-0.218,-0.2158,-0.2146,-0.2165,-0.2168,-0.2158,-0.2153,-0.2117,-0.2117,-0.2116,-0.2116,0,-0.2729,-0.267,-0.2665,-0.2598,-0.2582,-0.259,-0.2533,-0.253,-0.2487,-0.2478,-0.2472,-0.2405,-0.2384,-0.2325,-0.2289,-0.2259,-0.2273,-0.225,-0.2288,-0.2281,-0.2316,-0.2314,-0.2434,-0.2447,-0.2307,-0.2309,-0.231,0,-0.2789,-0.2793,-0.2727,-0.2716,-0.269,-0.2674,-0.2657,-0.259,-0.2576,-0.2526,-0.253,-0.2504,-0.248,-0.2451,-0.24,-0.2372,-0.2349,-0.2393,-0.2345,-0.2363,-0.2352,-0.2353,-0.2354,-0.2404,-0.2406,-0.2408,-0.2409,0,-0.2902,-0.2873,-0.2851,-0.282,-0.2801,-0.2773,-0.2741,-0.2737,-0.2662,-0.2649,-0.2627,-0.2608,-0.2571,-0.2547,-0.2511,-0.2481,-0.2434,-0.2424,-0.243,-0.245,-0.2473,-0.2463,-0.2319,-0.2422,-0.2421,-0.242,-0.2419,-0.2419,-0.2995,-0.2995,-0.2949,-0.2927,-0.2896,-0.2867,-0.2862,-0.2818,-0.2798,-0.2763,-0.2724,-0.2707,-0.2663,-0.261,-0.2584,-0.257,-0.2544,-0.2552,-0.2555,-0.2558,-0.2568,-0.2473,-0.2563,-0.2562,-0.2562,-0.2561,-0.2561,0,-0.3107,-0.3073,-0.3053,-0.301,-0.2993,-0.2948,-0.291,-0.2899,-0.2884,-0.2847,-0.2825,-0.28,-0.2776,-0.2722,-0.2693,-0.2692,-0.267,-0.2687,-0.2688,-0.2682,-0.2591,-0.259,-0.2706,-0.2706,-0.2706,-0.2706,-0.2706,-0.2706,-0.3163,-0.3162,-0.3127,-0.311,-0.3075,-0.3058,-0.304,-0.3014,-0.2984,-0.2959,-0.2939,-0.2903,-0.286,-0.2827,-0.2803,-0.2788,-0.2781,-0.2806,-0.2785,-0.2702,-0.2688,-0.2675,-0.2673,-0.2805,-0.2805,-0.2876,-0.2877,-0.2877]},{"header":{"parameterUnit":"m.s-1","parameterCategory":1,"la1":30.2991,"la2":30.254,"lo1":-89.0895,"lo2":-89.0444,"dy":0.0017,"dx":0.0017,"nx":28,"ny":28,"refTime":"2023-05-23T21:00:00:Z","depth":0,"parameterNumber":3,"parameterNumberName":"V-component_of_WINDS"},"data":[0,0,0,0,0,0,0,0,0,0,0,0,0,0,0,0,0,0,0,0,0,0,0,0,0,0,0,0,0,0,0,0,0,0,0,0,0,0,0,0,0,0,0,0,0,0,0,0,0,0,0,0,0,0,0,0,0,0,0.3446,0.3446,0,0.3398,0.3397,0.3397,0.3321,0.3319,0.3318,0.3317,0.3267,0.3267,0.3267,0,0,0,0,0,0,0,0,0,0,0,0,0,0.3472,0.3472,0.3446,0.3446,0.3445,0.3398,0.3397,0.3396,0.3321,0.3319,0.3317,0.3316,0.3267,0.3267,0.3267,0,0,0,0,0,0,0,0,0,0,0,0,0,0.3446,0.3472,0.3446,0.3402,0.3397,0.3398,0.3397,0.3396,0.3321,0.3319,0.3317,0.3315,0.3267,0.3267,0.3267,0.3308,0,0,0.3267,0.3267,0,0,0,0,0,0,0,0,0.3447,0.3445,0.3409,0.3405,0.34,0.3363,0.3388,0.3367,0.3322,0.335,0.3317,0.3314,0.3301,0.3298,0.3293,0.3306,0.3304,0.3267,0.3267,0.3267,0.3267,0,0,0,0,0,0,0,0.3449,0.3447,0.3427,0.3408,0.3403,0.3383,0.3377,0.3384,0.3338,0.3347,0.3342,0.3337,0.3298,0.3294,0.3292,0.3303,0.3267,0.3267,0.3267,0.3267,0.3341,0.3343,0,0,0,0,0,0,0.3458,0.3449,0.3429,0.3426,0.3419,0.3385,0.3378,0.3377,0.3337,0.3329,0.3339,0.3334,0.3295,0.3292,0.329,0.3331,0.3267,0.3267,0.3267,0.3339,0.3342,0.3344,0,0,0,0,0,0,0.3459,0.3457,0.343,0.3435,0.3431,0.3386,0.3386,0.3377,0.3372,0.3331,0.3322,0.3343,0.3293,0.329,0.3303,0.3328,0.3267,0.3267,0.3337,0.334,0.3343,0.3416,0,0,0,0,0,0,0.346,0.3457,0.3473,0.3436,0.3431,0.3445,0.3387,0.3378,0.3372,0.3365,0.3332,0.3325,0.3291,0.3303,0.3303,0.3327,0.3267,0.3334,0.3338,0.3342,0.3411,0.3421,0.343,0,0,0,0,0,0.3461,0.3497,0.3474,0.3472,0.3449,0.3447,0.3444,0.3404,0.3375,0.3389,0.3362,0.3326,0.3326,0.3305,0.3304,0.3329,0.3332,0.3337,0.3341,0.3407,0.3419,0.3429,0,0,0,0,0,0,0.3539,0.3491,0.3466,0.3491,0.3473,0.3434,0.3451,0.3419,0.3409,0.3403,0.3355,0.3348,0.3366,0.3349,0.3327,0.3363,0.3323,0.3328,0.3373,0.3385,0.3394,0.3396,0.3267,0,0,0,0,0,0.3559,0.3561,0.352,0.3546,0.3538,0.3497,0.3494,0.3465,0.3445,0.3437,0.3411,0.3393,0.3388,0.3386,0.338,0.3409,0.3398,0.3425,0.3434,0.3442,0.3446,0.3455,0.3465,0.3359,0.3358,0.3358,0,0,0.36,0.3575,0.3579,0.3561,0.3544,0.3545,0.3491,0.3497,0.3497,0.3438,0.3447,0.3428,0.3404,0.3424,0.3431,0.341,0.3473,0.3448,0.3454,0.3453,0.3461,0.3471,0.348,0.3362,0.3361,0.3361,0,0,0.3676,0.3659,0.3676,0.366,0.3634,0.3605,0.361,0.3575,0.3558,0.3567,0.3522,0.3522,0.3516,0.3499,0.3491,0.3557,0.3522,0.3557,0.3604,0.3614,0.3623,0.363,0.3649,0.3658,0.3561,0.3561,0.3561,0,0.3731,0.3732,0.369,0.3696,0.3688,0.3634,0.365,0.3636,0.361,0.3605,0.3582,0.3571,0.3552,0.3565,0.358,0.3577,0.3577,0.3559,0.3625,0.3632,0.3638,0.3656,0.3664,0.3565,0.3565,0.3564,0.3564,0,0.3798,0.38,0.3818,0.3791,0.3785,0.3798,0.3755,0.3754,0.3725,0.3699,0.3706,0.3681,0.3667,0.3668,0.3641,0.3677,0.3664,0.3634,0.3592,0.3652,0.3668,0.3676,0.3571,0.357,0.3568,0.3567,0,0,0.3922,0.387,0.3877,0.3862,0.3829,0.3829,0.3838,0.3822,0.3821,0.3805,0.3808,0.3803,0.3774,0.3764,0.3734,0.3743,0.3792,0.3711,0.371,0.3724,0.3825,0.3845,0.3854,0.377,0.3771,0.3772,0.3826,0,0.3987,0.3998,0.3959,0.3979,0.3978,0.3925,0.3932,0.3912,0.3887,0.3882,0.3855,0.385,0.3814,0.3807,0.3814,0.3785,0.3811,0.3781,0.377,0.377,0.3774,0.3863,0.3885,0.3937,0.3832,0.3833,0.3834,0,0.4066,0.4051,0.4071,0.4032,0.403,0.4037,0.4018,0.4015,0.399,0.3971,0.3958,0.3923,0.3926,0.3889,0.3891,0.3871,0.3865,0.385,0.3851,0.3846,0.3804,0.3857,0.3953,0.396,0.3844,0.3843,0.3843,0,0.4148,0.4134,0.4142,0.4133,0.409,0.4095,0.4077,0.405,0.4042,0.4026,0.402,0.4005,0.3996,0.3985,0.3946,0.3922,0.3951,0.3911,0.3933,0.3934,0.394,0.3939,0.4033,0.3942,0.3942,0.3942,0.3941,0,0.4224,0.4237,0.4178,0.4183,0.4195,0.415,0.4163,0.414,0.4116,0.4114,0.407,0.4069,0.4019,0.4013,0.3983,0.3987,0.3985,0.3967,0.3959,0.3969,0.3971,0.3962,0.3956,0.3944,0.3943,0.3943,0.3942,0,0.4317,0.4279,0.4284,0.4242,0.4231,0.4242,0.4205,0.4207,0.4179,0.4178,0.4175,0.4131,0.412,0.4081,0.4062,0.4041,0.4054,0.404,0.4062,0.4056,0.4078,0.4075,0.4167,0.4174,0.4083,0.4084,0.4084,0,0.4366,0.4374,0.4332,0.4327,0.4311,0.4305,0.4296,0.4251,0.4244,0.4214,0.4219,0.4205,0.4191,0.4176,0.4142,0.4126,0.4108,0.4141,0.4106,0.4115,0.4104,0.4103,0.4101,0.4148,0.415,0.4151,0.4151,0,0.4455,0.4435,0.4424,0.4406,0.4396,0.438,0.436,0.4359,0.4309,0.4303,0.4291,0.428,0.4258,0.4244,0.4222,0.4202,0.4167,0.4163,0.4166,0.4176,0.4187,0.4177,0.4079,0.4161,0.416,0.4159,0.4159,0.4158,0.4525,0.4528,0.4498,0.4486,0.4467,0.4449,0.4448,0.4419,0.4408,0.4386,0.4361,0.4351,0.4323,0.4289,0.4272,0.4263,0.4245,0.4251,0.4252,0.4253,0.4257,0.4191,0.426,0.4259,0.4259,0.4259,0.4259,0,0.4608,0.4586,0.4576,0.4549,0.4539,0.4508,0.4484,0.4477,0.4469,0.4446,0.4432,0.4417,0.4402,0.4366,0.4347,0.4346,0.4329,0.4342,0.434,0.4335,0.4277,0.4273,0.4356,0.4356,0.4356,0.4356,0.4356,0.4356,0.465,0.4653,0.4629,0.4621,0.4598,0.4587,0.4576,0.4559,0.4539,0.4524,0.451,0.4487,0.4457,0.4436,0.442,0.4409,0.4403,0.442,0.4404,0.4349,0.434,0.4331,0.4328,0.442,0.442,0.4463,0.4464,0.4464]}]]